This demonstration page uses our WeatherBlox Daily Observations layout. Learn more.

Left ArrowRight Arrow

36.19886, -115.1175

Hourly Observations for December 12, 2015

Temp ( °F °C ) Dew Point ( °F °C ) Humidity (%) Winds ( mph kmh ) Pressure ( in mb ) Visibility ( mi km ) Precip ( " mm )
12:53 am 00:53 Clear 49 9.4 30 -1.1 48 48 N 14 22 29.78 1009 10 16 0.00 0.00
1:53 am 01:53 Clear 47 8.3 29 -1.7 50 50 NNW 16 26 29.80 1009 10 16 0.00 0.00
2:53 am 02:53 Clear 46 7.8 26 -3.3 46 46 NNW 21 33 29.82 1010 10 16 0.00 0.00
3:53 am 03:53 Clear 47 8.3 22 -5.6 37 37 NNW 18 30 29.83 1010 10 16 0.00 0.00
4:53 am 04:53 Clear 46 7.8 22 -5.6 38 38 NNW 18 30 29.85 1011 10 16 0.00 0.00
5:53 am 05:53 Clear 45 7.2 21 -6.1 39 39 N 15 24 29.90 1012 10 16 0.00 0.00
6:53 am 06:53 Sunny 46 7.8 20 -6.7 35 35 N 12 19 29.93 1014 10 16 0.00 0.00
7:53 am 07:53 Sunny 48 8.9 20 -6.7 33 33 NNW 18 30 29.96 1014 10 16 0.00 0.00
8:53 am 08:53 Sunny 50 10 20 -6.7 30 30 NNW 23 37 29.97 1015 10 16 0.00 0.00
9:53 am 09:53 Sunny 52 11.1 19 -7.2 27 27 NNW 22 35 30.01 1016 10 16 0.00 0.00
10:53 am 10:53 Sunny 54 12.2 18 -7.8 24 24 NNW 20 31 30.00 1016 10 16 0.00 0.00
11:53 am 11:53 Sunny 55 12.8 18 -7.8 23 23 NNW 17 28 29.99 1016 10 16 0.00 0.00
12:53 pm 12:53 Sunny 55 12.8 18 -7.8 23 23 NNW 17 28 29.98 1015 10 16 0.00 0.00
1:53 pm 13:53 Sunny 56 13.3 18 -7.8 22 22 NNW 17 28 29.98 1015 10 16 0.00 0.00
2:53 pm 14:53 Sunny 56 13.3 18 -7.8 22 22 NNW 16 26 30.01 1016 10 16 0.00 0.00
3:53 pm 15:53 Sunny 55 12.8 19 -7.2 24 24 NNW 14 22 30.02 1017 10 16 0.00 0.00
4:53 pm 16:53 Clear 53 11.7 19 -7.2 26 26 N 10 17 30.03 1017 10 16 0.00 0.00
5:53 pm 17:53 Clear 51 10.6 20 -6.7 29 29 N 8 13 30.06 1018 10 16 0.00 0.00
6:53 pm 18:53 Clear 50 10 20 -6.7 30 30 N 6 9 30.07 1018 10 16 0.00 0.00
7:53 pm 19:53 Clear 47 8.3 20 -6.7 34 34 NNW 7 11 30.08 1019 10 16 0.00 0.00
8:53 pm 20:53 Clear 47 8.3 21 -6.1 36 36 N 7 11 30.09 1019 10 16 0.00 0.00
9:53 pm 21:53 Clear 48 8.9 20 -6.7 33 33 N 10 17 30.09 1019 10 16 0.00 0.00
10:53 pm 22:53 Clear 45 7.2 20 -6.7 37 37 N 6 9 30.09 1019 10 16 0.00 0.00
11:53 pm 23:53 Clear 44 6.7 21 -6.1 40 40 W 6 9 30.10 1019 10 16 0.00 0.00

Powered by AerisWeather